www.pogodaiklimat.ru

Погода и климат >> Архив погоды >> Аргентина >> Пилар


ПОГОДА в Пиларе

  • Прогноз погоды в Пиларе
  • Монитор погоды в Пиларе

АРХИВ ПОГОДЫ в Пиларе

Время (UTC), дата Ветер
(напр.,м/с)
 
Видим.   Явления Облачность Т
(С)
Тd
(С)
f
(%)
Тe
(С)
Тes
(С)
Комфортность P
(гПа)
Po
(гПа)
Тmin
(С)
Tmax
(С)
R
(мм)
R24
(мм)
S
(см)
12 17.01 Ю 4 2500 м дождь {морось} 10/10 330 м
[St]
+16.1 +15.6 97 +15 +15 1019.3 980.2 +14.7 +25.3 1
15 17.01 Ю 7 2000 м слаб. морось {дождь} 10/10 300 м
[St]
+15.1 +14.4 96 +13 +13 1020.0 980.6
18 17.01 Ю 6 1500 м слаб. морось {дождь} 10/10 300 м
[St]
+15.4 +14.4 94 +14 +14 1020.5 981.2 5
21 17.01 Ю 7 2000 м слаб. морось 10/10 360 м
[St]
+14.1 +12.7 91 +12 +12 1021.0 981.2
00 18.01 Ю 5 6000 м слаб. дождь {морось} 10/4 450 м
[Sc As op]
+12.8 +10.1 84 +11 +11 1024.0 983.8 +12.8 +16.1 0.3
03 18.01 Ю 4 10 км в посл. час дождь 10/5 750 м
[Sc As op]
+12.2 +10.5 89 +10 +10 1025.9 985.6
06 18.01 Ю 2 10 км {дождь} 10/10 750 м
[Sc]
+13.1 +11.2 88 +12 +12 1024.1 984.0 3
09 18.01 Ю 2 10 км ясно +11.7 +10.2 91 +11 +11 1023.9 983.6
12 18.01 Ю 3 10 км ясно +15.9 +11.5 75 +16 +21 1024.3 984.2 +11.2 +15.9 9
15 18.01 Ю 3 10 км 9/9 600 м
[Sc]
+18.9 +13.7 72 +20 +22 1024.6 984.6
18 18.01 Ю 3 10 км 9/9 600 м
[Sc]
+20.1 +13.6 66 +22 +24 комфорт 1022.7 983.0
21 18.01 В 2 10 км 5/5 600 м
[Sc]
+21.9 +13.9 60 +25 +27 комфорт 1020.8 981.2
00 19.01 штиль 0 10 км ясно +17.5 +15.1 86 +17 +17 1021.7 982.0 +15.9 +22.2
03 19.01 штиль 0 8000 м дымка ясно +14.9 +14.2 96 +15 +15 1023.0 983.3
06 19.01 штиль 0 8000 м местами туман поземный ясно +13.4 +13.2 99 +13 +13 1023.4 983.6
09 19.01 штиль 0 10 км местами туман поземный ясно +12.4 +12.0 97 +12 +12 1022.7 983.0
12 19.01 С 1 10 км {туман} ясно +18.2 +14.8 81 +20 +27 1023.2 983.6 +11.7 +18.2
15 19.01 С 2 10 км 5/5 600 м
[Cu hum]
+21.5 +15.0 66 +25 +34 комфорт 1022.5 983.0
18 19.01 С 6 10 км 5/5 600 м
[Cu hum]
+23.9 +16.1 62 +27 +31 жарко 1020.5 981.0
21 19.01 СВ 4 10 км 1/1 600 м
[Cu hum]
+23.9 +14.4 55 +26 +29 жарко 1018.4 979.0
00 20.01 С 1 10 км ясно +20.6 +16.3 76 +25 +25 комфорт 1018.7 979.4 +18.2 +24.3
03 20.01 СЗ 3 10 км 4/4 600 м
[Sc]
+17.2 +15.0 87 +17 +17 1020.0 980.6
06 20.01 СЗ 2 10 км ясно +16.9 +14.5 86 +17 +17 1018.1 979.0
09 20.01 С 1 10 км 1/1 600 м
[Sc]
+15.0 +13.8 93 +15 +15 1016.8 977.7
12 20.01 С 5 10 км 3/1 600 м
[Sc Ci]
+19.0 +16.2 84 +20 +23 1017.0 977.8 +14.3 +20.6
15 20.01 С 6 10 км 4/3 540 м
[Cu hum Ci]
+22.6 +15.5 64 +27 +32 душно 1015.6 976.6
18 20.01 С 5 10 км 1/1 600 м
[Cu hum Ci]
+25.3 +17.4 62 +29 +37 душно 1012.8 974.0
21 20.01 С 4 10 км 3/1 600 м
[Cu hum Ci fib]
+25.3 +17.8 63 +30 +32 душно 1010.3 971.4
00 21.01 С 2 10 км 3/0
[Ci sp]
+21.6 +17.4 77 +26 +26 душно 1011.3 972.5 +19.0 +26.0
03 21.01 С 3 10 км 8/0
[Cs]
+19.2 +17.4 89 +21 +21 комфорт 1012.3 973.4
06 21.01 С 4 10 км 4/0
[Cs]
+20.0 +17.4 85 +23 +23 комфорт 1010.0 971.4
09 21.01 С 2 10 км 6/0
[Ac As Ci sp]
+18.3 +17.3 94 +20 +20 1011.0 972.4
12 21.01 С 4 10 км 6/0
[Ac cast Cc]
+22.0 +18.9 83 +27 +31 душно 1012.9 974.2 +17.9 +22.0
15 21.01 С 4 10 км 6/5 750 м
[Sc Ac cast]
+27.1 +20.7 68 +34 +39 очень
душно
1012.5 974.0
18 21.01 С 2 10 км 9/9 750 м
[Cb calv]
+27.6 +21.4 69 +35 +37 очень
душно
1010.9 972.5
21 21.01 С 3 10 км 6/6 750 м
[Cu Sc]
+29.9 +21.4 60 +38 +39 очень
душно
1009.0 970.8
00 22.01 С 2 10 км 9/9 750 м
[Sc]
+25.5 +22.0 81 +33 +33 очень
душно
1010.7 972.2 +22.0 +30.1
03 22.01 С 3 10 км ясно +23.4 +21.3 88 +31 +31 очень
душно
1011.4 973.2
06 22.01 С 5 10 км ясно +22.9 +21.2 90 +30 +30 очень
душно
1010.1 972.0
09 22.01 С 3 10 км 3/0
[Cs]
+22.0 +21.2 95 +28 +28 душно 1009.6 971.6
12 22.01 С 5 10 км 8/1 600 м
[Cu hum Ac As Cs]
+24.7 +22.5 88 +32 +34 очень
душно
1010.8 972.6 +21.0 +25.5
15 22.01 С 5 10 км 8/1 600 м
[Cu med, cong Cs]
+29.1 +23.5 72 +40 +47 очень
душно
1009.3 971.3
18 22.01 С 5 10 км 8/1 600 м
[Cu med, cong Cs]
+32.2 +25.2 67 +46 +54 опасность
перегрева
1006.9 969.2
21 22.01 СВ 4 10 км 8/1 600 м
[Cu hum Ac As]
+31.6 +25.3 69 +46 +47 опасность
перегрева
1006.0 968.2
00 23.01 С 3 10 км 6/1 600 м
[Cu med, cong Ac As]
+28.8 +24.9 79 +41 +41 опасность
перегрева
1006.7 968.9 +24.7 +33.4
03 23.01 С 1 10 км зарница 1/1 1200 м
[Cb cap]
+27.1 +24.8 87 +39 +39 очень
душно
1008.8 971.0
06 23.01 С 1 10 км ясно +25.5 +24.6 95 +36 +36 очень
душно
1007.7 970.1
09 23.01 штиль 0 10 км 1/1 600 м
[Sc]
+24.6 +23.7 95 +33 +33 очень
душно
1008.2 970.5
12 23.01 В 2 3000 м дымка 10/10 540 м
[Sc]
+25.9 +25.2 96 +37 +37 очень
душно
1009.5 971.6 +23.5 +28.8
15 23.01 В 5 10 км 9/0
[Cs]
+28.7 +24.0 76 +40 +49 очень
душно
1010.5 972.6
18 23.01 В 3 10 км гроза без осадков 10/10 600 м
[Cb cap]
+26.9 +22.7 78 +36 +36 очень
душно
1010.9 972.8
21 23.01 З 2 10 км {гроза} 9/3 600 м
[Sc Ac cuf Ci sp]
+27.4 +23.8 81 +38 +40 очень
душно
1010.9 972.8
00 24.01 В 1 10 км {гроза} 10/10 240 м
[St]
+26.0 +24.0 89 +36 +36 очень
душно
1011.4 973.3 +25.9 +29.2
03 24.01 штиль 0 10 км гроза без осадков 10/10 450 м
[Cb cap]
+24.6 +23.7 95 +33 +33 очень
душно
1013.2 975.0
06 24.01 С 2 10 км {гроза} 10/4 360 м
[Sc Ac As]
+23.4 +23.0 98 +33 +33 очень
душно
1012.8 974.5
09 24.01 С 3 600 м туман ?/? +22.0 +22.0 100 +29 +29 очень
душно
1011.0 972.8

 

Местоположение метеостанции Пилар (Аргентина): широта -31.66 долгота -63.88 высота над уровнем моря 338 м.

В архиве по умолчанию представлена погода в Пиларе за последнюю неделю. Архивные данные за месяц целиком и за предыдущие месяцы, начиная с января 2011 года, Вы можете получить, выбрав интересующий диапазон дат из раскрывающегося списка и нажав кнопку "Ввод!".


*Определитесь, кто Вы:
робот инопланетянин человек

Внимание! Время в таблицах - всемирное. Для получения местного времени необходимо прибавить поправку, которая равна -3 ч.

Смотрите также архив погоды в соседних городах и на ближайших метеорологических станциях:

Погода в Кордове (Аргентина) (50 км)
Погода в Вилла Долорес (Аргентина) (122 км)
Погода в Рио-Куарто (Аргентина) (163 км)
Погода в Вилла де Мария дель Рио Секо (Аргентина) (197 км)
Погода в Маркос Хуарес (Аргентина) (200 км)
Погода в Вилья Рейнольдс (Аргентина) (270 км)
Погода в Сересе (Аргентина) (271 км)
Погода в Чамикале (Аргентина) (271 км)
Погода в Лабоулайе (Аргентина) (279 км)
Погода в Санта-Фе (Аргентина) (291 км)

Пояснения к столбцам:

Ветер - указаны скорость ветра в м/с - средняя за 10 мин, порывы в срок и между сроками (в фигурных скобках) и направление, откуда дует ветер: С - северный, СВ - северо-восточный, В - восточный, ЮВ - юго-восточный, Ю - южный, ЮЗ - юго-западный, З - западный, СЗ - северо-западный.
Видимость - горизонтальная дальность видимости в метрах или километрах. При видимости от 1 до 10 км при отсутствии осадков обычно наблюдается дымка, при ухудшении видимости до 1 км и менее - туман. В сухую погоду видимость может ухудшаться дымом, пылью или мглою.
Явления - указаны атмосферные явления, наблюдавшиеся в срок или в последний час перед сроком; фигурными скобками обозначены явления, наблюдавшиеся между сроками (за 1-3 часа до срока); квадратными скобками обозначены град или гололедные отложения с указанием их диаметра в мм.
Облачность - указаны через наклонную черту общая и нижняя облачность в баллах и высота нижней границы облаков в метрах; квадратными скобками обозначены формы облаков: Ci - перистые, Cs - перисто-слоистые, Cc - перисто-кучевые, Ac - высококучевые, As - высокослоистые, Sc - слоисто-кучевые, Ns - слоисто-дождевые, Cu - кучевые, Cb - кучево-дождевые. Подробнее классификацию облаков см. в Атласе облаков (PDF).
T - Температура воздуха - температура, измеренная на высоте 2 м над землей.
Td - Температура точки росы - температура, при понижении до которой содержащийся в воздухе водяной пар достигнет насыщения.
f - Относительная влажность воздуха - влажноcть воздуха, измеренная на высоте 2 м над землей.
Te - Эффективная температура - температура, которую ощущает одетый по сезону человек в тени. Характеристика душности погоды. При расчете учитывается влияние влажности воздуха и скорости ветра на теплоощущения человека.
Tes - Эффективная температура на солнце - температура, которую ощущает человек, с поправкой на солнечный нагрев. Характеристика знойности погоды. Зависит от высоты солнца над горизонтом, облачности и скорости ветра. Ночью, в пасмурную погоду, а также при ветре 12 м/с и более поправка равна нулю.
P - Атмосферное давление - приведенное к уровню моря атмосферное давление.
Po - Атмосферное давление - измеренное на уровне метеостанции атмосферное давление.
Tmin - Минимальная температура - минимум температуры воздуха на высоте 2 м над землей.
Tmax - Максимальная температура - максимум температуры воздуха на высоте 2 м над землей.
R - Количество осадков - Количество выпавших осадков за период времени, мм. При наведении курсора мыши на число - период времени, за который выпало указанное количество осадков.
R24 - Количество осадков - Количество выпавших осадков за 24 часа, мм.
S - Снежный покров - Высота снежного покрова, см. При наведении курсора мыши на число - состояние снежного покрова и степень покрытия местности в баллах.